FW0649 Weather Reports


time (UTC)temp
C
wind
direction
speed
KPH
gust
KPH
rain 1hr
cm
rain 24hr
cm
rain mn
cm
humidity
%
barometer
mb
20260505224543 25 6.4 12.9 0.00 0.05 0.03 42 1008.4
20260505223039 25 6.4 12.9 0.00 0.05 0.03 45 1008.4
20260505221537 25 8.0 16.1 0.00 0.05 0.03 45 1008.5
20260505220034 25 4.8 14.5 0.00 0.05 0.03 44 1008.7
20260505214534 25 6.4 14.5 0.00 0.05 0.03 45 1008.8
20260505213031 24 1.6 14.5 0.00 0.05 0.03 45 1008.8
20260505211529 24 1.6 14.5 0.00 0.05 0.03 44 1008.9
20260505210028 24 3.2 9.7 0.00 0.05 0.03 44 1009.1
20260505204524 23 3.2 9.7 0.00 0.05 0.03 51 1009.2
20260505203030 23 6.4 12.9 0.00 0.05 0.03 48 1009.4
20260505201520 23 4.8 11.3 0.00 0.05 0.03 49 1009.4
20260505200019 22 0.0 9.7 0.00 0.05 0.03 50 1009.3
20260505194516 22 3.2 9.7 0.00 0.05 0.03 52 1009.6
20260505193014 22 3.2 11.3 0.00 0.05 0.03 55 1009.6
20260505191511 21 4.8 9.7 0.00 0.05 0.03 58 1009.6
20260505190019 21 1.6 9.7 0.03 0.05 0.03 59 1009.7
20260505184507 21 4.8 9.7 0.03 0.05 0.03 60 1009.9
20260505183004 20 0.0 8.0 0.03 0.05 0.03 61 1010.0
20260505181502 20 1.6 9.7 0.03 0.05 0.03 59 1009.9
20260505180059 19 6.4 12.9 0.00 0.03 0.00 59 1009.9
20260505174558 19 4.8 12.9 0.00 0.03 0.00 61 1010.0
20260505173059 19 0.0 8.0 0.00 0.03 0.00 64 1009.9
20260505171559 18 4.8 11.3 0.00 0.03 0.00 68 1009.8
20260505170048 17 4.8 12.9 0.00 0.03 0.00 69 1009.8
20260505164545 17 4.8 11.3 0.00 0.03 0.00 70 1009.8
20260505163044 17 3.2 11.3 0.00 0.03 0.00 70 1009.9
20260505161546 16 3.2 8.0 0.00 0.03 0.00 73 1009.9
20260505153032 15 3.2 6.4 0.00 0.03 0.00 74 1009.8
20260505151535 15 3.2 4.8 0.00 0.03 0.00 76 1009.6
20260505124510 6 0.0 1.6 0.00 0.03 0.00 92 1008.4
20260505123009 6 0.0 3.2 0.00 0.03 0.00 93 1008.3
20260505121506 6 0.0 1.6 0.00 0.03 0.00 92 1008.1
20260505120011 6 0.0 1.6 0.00 0.03 0.00 92 1008.1
20260505114502 7 0.0 1.6 0.00 0.03 0.00 92 1008.0
20260505113100 7 0.0 1.6 0.00 0.03 0.00 92 1008.0
20260505111558 7 0.0 0.0 0.00 0.03 0.00 91 1007.8
20260505101552 8 0.0 1.6 0.00 0.03 0.00 91 1007.3
20260505100047 8 0.0 1.6 0.00 0.03 0.00 90 1007.3
20260505094544 8 0.0 3.2 0.00 0.03 0.00 90 1007.2
20260505093043 8 0.0 0.0 0.00 0.03 0.00 89 1007.2
20260505091539 9 0.0 3.2 0.00 0.03 0.00 89 1007.1
20260505090044 8 0.0 1.6 0.00 0.03 0.00 89 1007.0
20260505084536 9 0.0 0.0 0.00 0.03 0.00 89 1006.9
20260505083034 9 0.0 4.8 0.00 0.03 0.00 87 1006.9
20260505081539 10 0.0 0.0 0.00 0.03 0.00 88 1006.9
20260505080036 10 0.0 1.6 0.00 0.03 0.00 85 1006.9
20260505074525 11 0.0 3.2 0.00 0.03 0.00 84 1006.9
20260505073042 11 1.6 3.2 0.00 0.03 0.00 84 1006.7
20260505071520 12 0.0 0.0 0.00 0.03 0.00 80 1006.6
20260505070021 12 0.0 3.2 0.00 0.03 0.00 78 1006.4
20260505064533 13 0.0 0.0 0.00 0.03 0.03 77 1006.3
20260505063016 13 0.0 0.0 0.00 0.03 0.03 75 1006.3
20260505061528 14 0.0 0.0 0.00 0.03 0.03 71 1006.4
20260505060014 13 0.0 4.8 0.00 0.03 0.03 71 1006.4
20260505054514 13 0.0 4.8 0.00 0.03 0.03 72 1006.2
20260505053013 15 0.0 4.8 0.00 0.03 0.03 65 1006.1
20260505041513 17 0.0 4.8 0.00 0.03 0.03 55 1005.6
20260505040010 18 1.6 4.8 0.00 0.03 0.03 54 1005.5
20260505034511 18 0.0 1.6 0.03 0.03 0.03 49 1005.2
20260505033009 20 0.0 6.4 0.03 0.03 0.03 48 1004.9
20260505031526 20 3.2 12.9 0.03 0.03 0.03 46 1004.7
20260505030009 21 9.7 22.5 0.03 0.05 0.03 45 1004.5
20260505024515 21 9.7 17.7 0.00 0.03 0.00 42 1004.3
20260505023009 22 4.8 14.5 0.00 0.03 0.00 42 1004.3
20260505021506 23 4.8 17.7 0.00 0.03 0.00 40 1004.2
20260505020011 23 8.0 19.3 0.00 0.03 0.00 36 1004.2
20260505014504 24 11.3 20.9 0.00 0.03 0.00 34 1004.1
20260505013004 25 11.3 30.6 0.00 0.03 0.00 33 1004.2
20260505011503 25 17.7 27.4 0.00 0.03 0.00 32 1004.2
20260505010002 26 12.9 27.4 0.00 0.03 0.00 32 1004.2
20260505004601 26 12.9 25.7 0.00 0.03 0.00 32 1004.2
20260505003100 26 16.1 25.7 0.00 0.03 0.00 31 1004.2
20260505001601 27 11.3 20.9 0.00 0.03 0.00 30 1004.2
20260505000116 27 11.3 20.9 0.00 0.03 0.00 32 1004.2
20260504234557 27 4.8 16.1 0.00 0.03 0.00 31 1004.1
20260504233059 27 4.8 17.7 0.00 0.03 0.00 40 1004.1
20260504231555 27 9.7 17.7 0.00 0.03 0.00 37 1004.2
20260504230105 27 11.3 19.3 0.00 0.03 0.00 36 1004.4